Weather in Osintsevo

Russia / Perm Krai     57°18′26″N   57°38′32″E
temp.,
°C
wind,
m/s
gust,
m/s
humid.,
%
clouds,
%
prec.,
mm/h
press.,
hPa
HPBL,
m
28 february, sun
sun2823:00−17ese41190100 0.5 1009533
02:00−16e51092100 0.1 1008501
05:00−15e51192100 0.4 1008525
08:00−15e5118998 0.1 1008535
11:00−14e5108898 0.2 1008588
14:00−12e5987100 0.1 1008627
17:00−12e4987100 0.3 1009640
20:00−14ene4991100 0.1 1011571
1 march, mon
mon123:00−16ene499298 0.3 1012485
02:00−16ene379493 0.1 1014407
05:00−17ene279697 0.3 1015339
08:00−18ene2696100 0.2 1016266
11:00−16ene249093 0.3 1018356
14:00−11ene128395 0.0 1017509
17:00−11nnw118698 0.1 1017416
20:00−17nw1198100 0.1 101720
2 march, tue
tue223:00−19ssw119995 0.1 101720
02:00−19ssw239978 0.0 101532
05:00−19s379988 0.1 1014164
08:00−20s4997100 0.0 1012310
11:00−17s4991100 0.1 1010421
14:00−12s51088100 0.0 1007541
17:00−10s51093100 0.6 1005603
20:00−11ssw41094100 0.9 1004640
3 march, wed
wed323:00−13s41094100 1.6 1003580
02:00−13s3895100 0.5 1001477
05:00−13sse3895100 0.9 1000356
08:00−12sse2696100 0.4 999269
11:00−9sse2493100 0.8 998321
14:00−6ssw1290100 0.3 997364
17:00−6nw2294100 0.8 997275
20:00−11nw2396100 0.1 99740
4 march, thu
thu423:00−12wnw119793 0.2 99921
02:00−10wnw3896100 0.3 1000253
05:00−14wnw2498100 0.3 100283
08:00−15wnw2699100 0.1 1003141
11:00−11wnw3694100 0.3 1003363
14:00−8w4788100 0.1 1004833
17:00−8w4886100 0.3 1004884
20:00−9ssw41193100 0.1 1003505